| time (UTC) | temp C | wind direction | speed KPH | gust KPH | rain 1hr cm | rain 24hr cm | rain mn cm | humidity % | barometer mb |
| 20260510022027 | 15 | 0.0 | 0.0 | 0.00 | 0.00 | 0.00 | 86 | 1012.1 | |
| 20260510021035 | 15 | 0.0 | 0.0 | 0.00 | 0.00 | 0.00 | 87 | 1012.1 | |
| 20260510020020 | 15 | 0.0 | 0.0 | 0.00 | 0.00 | 0.00 | 85 | 1011.8 | |
| 20260510015046 | 15 | 0.0 | 0.0 | 0.00 | 0.00 | 0.00 | 83 | 1011.7 | |
| 20260510014032 | 16 | 0.0 | 0.0 | 0.00 | 0.00 | 0.00 | 82 | 1011.7 | |
| 20260510013019 | 16 | 0.0 | 0.0 | 0.00 | 0.00 | 0.00 | 82 | 1011.5 | |
| 20260510012025 | 16 | 0.0 | 0.0 | 0.00 | 0.00 | 0.00 | 81 | 1011.3 | |
| 20260510011030 | 16 | 0.0 | 0.0 | 0.00 | 0.00 | 0.00 | 80 | 1011.2 | |
| 20260510010017 | 17 | 0.0 | 0.0 | 0.00 | 0.00 | 0.00 | 79 | 1011.0 | |
| 20260510005022 | 17 | 0.0 | 0.0 | 0.00 | 0.00 | 0.00 | 78 | 1010.9 | |
| 20260510004028 | 17 | 0.0 | 0.0 | 0.00 | 0.00 | 0.00 | 79 | 1010.8 | |
| 20260510003036 | 18 | 0.0 | 0.0 | 0.00 | 0.00 | 0.00 | 75 | 1010.8 | |
| 20260510002021 | 18 | 0.0 | 0.0 | 0.00 | 0.00 | 0.00 | 76 | 1010.8 | |
| 20260510001027 | 18 | 0.0 | 0.0 | 0.00 | 0.00 | 0.00 | 76 | 1010.8 | |
| 20260510000026 | 19 | 0.0 | 0.0 | 0.00 | 0.00 | 0.00 | 74 | 1010.6 | |
| 20260509235020 | 20 | 0.0 | 0.0 | 0.00 | 0.00 | 0.00 | 71 | 1010.6 | |
| 20260509234045 | 20 | 0.0 | 0.0 | 0.00 | 0.00 | 0.00 | 69 | 1010.4 | |
| 20260509233025 | 21 | 0.0 | 0.0 | 0.00 | 0.00 | 0.00 | 69 | 1010.4 | |
| 20260509232018 | 21 | 0.0 | 0.0 | 0.00 | 0.00 | 0.00 | 67 | 1010.4 | |
| 20260509231024 | 22 | 0.0 | 0.0 | 0.00 | 0.00 | 0.00 | 64 | 1010.4 | |
| 20260509230023 | 22 | 203 | 0.0 | 1.6 | 0.00 | 0.00 | 0.00 | 59 | 1010.4 |
| 20260509225017 | 23 | 43 | 1.6 | 3.2 | 0.00 | 0.00 | 0.00 | 57 | 1010.3 |
| 20260509224022 | 23 | 0.0 | 0.0 | 0.00 | 0.00 | 0.00 | 58 | 1010.5 | |
| 20260509223021 | 23 | 0.0 | 0.0 | 0.00 | 0.00 | 0.00 | 59 | 1010.4 | |
| 20260509222015 | 23 | 192 | 1.6 | 3.2 | 0.00 | 0.00 | 0.00 | 56 | 1010.4 |
| 20260509221021 | 23 | 338 | 0.0 | 3.2 | 0.00 | 0.00 | 0.00 | 59 | 1010.4 |
| 20260509220020 | 23 | 203 | 0.0 | 4.8 | 0.00 | 0.00 | 0.00 | 58 | 1010.5 |
| 20260509215019 | 22 | 193 | 1.6 | 4.8 | 0.00 | 0.00 | 0.00 | 56 | 1010.4 |
| 20260509214039 | 22 | 215 | 0.0 | 3.2 | 0.00 | 0.00 | 0.00 | 57 | 1010.4 |
| 20260509213018 | 23 | 194 | 4.8 | 9.7 | 0.00 | 0.00 | 0.00 | 58 | 1010.2 |
| 20260509212018 | 23 | 197 | 1.6 | 4.8 | 0.00 | 0.00 | 0.00 | 59 | 1010.2 |
| 20260509211017 | 23 | 189 | 1.6 | 3.2 | 0.00 | 0.00 | 0.00 | 59 | 1010.3 |
| 20260509210017 | 23 | 194 | 1.6 | 3.2 | 0.00 | 0.00 | 0.00 | 59 | 1010.1 |
| 20260509205017 | 23 | 192 | 1.6 | 8.0 | 0.00 | 0.00 | 0.00 | 58 | 1010.1 |
| 20260509204036 | 24 | 188 | 4.8 | 9.7 | 0.00 | 0.00 | 0.00 | 54 | 1010.1 |
| 20260509203015 | 25 | 197 | 8.0 | 12.9 | 0.00 | 0.00 | 0.00 | 54 | 1010.1 |
| 20260509202015 | 25 | 192 | 3.2 | 4.8 | 0.00 | 0.00 | 0.00 | 57 | 1010.1 |
| 20260509201032 | 25 | 192 | 4.8 | 8.0 | 0.00 | 0.00 | 0.00 | 56 | 1010.1 |
| 20260509200020 | 25 | 203 | 3.2 | 6.4 | 0.00 | 0.00 | 0.00 | 57 | 1010.4 |
| 20260509195026 | 24 | 199 | 3.2 | 6.4 | 0.00 | 0.00 | 0.00 | 58 | 1010.6 |
| 20260509194031 | 24 | 203 | 4.8 | 9.7 | 0.00 | 0.00 | 0.00 | 58 | 1010.8 |
| 20260509193018 | 24 | 200 | 4.8 | 9.7 | 0.00 | 0.00 | 0.00 | 59 | 1011.1 |
| 20260509192024 | 23 | 192 | 4.8 | 9.7 | 0.00 | 0.00 | 0.00 | 61 | 1011.2 |
| 20260509191029 | 22 | 209 | 4.8 | 8.0 | 0.00 | 0.00 | 0.00 | 63 | 1011.3 |
| 20260509190017 | 21 | 186 | 3.2 | 4.8 | 0.00 | 0.00 | 0.00 | 66 | 1011.6 |
| 20260509185023 | 21 | 165 | 1.6 | 3.2 | 0.00 | 0.00 | 0.00 | 67 | 1011.5 |
| 20260509184028 | 20 | 191 | 3.2 | 6.4 | 0.00 | 0.00 | 0.00 | 67 | 1011.4 |
| 20260509183015 | 21 | 209 | 4.8 | 8.0 | 0.00 | 0.00 | 0.00 | 67 | 1011.6 |
| 20260509182021 | 20 | 190 | 4.8 | 8.0 | 0.00 | 0.00 | 0.00 | 66 | 1011.7 |
| 20260509181026 | 20 | 204 | 4.8 | 6.4 | 0.00 | 0.00 | 0.00 | 67 | 1012.0 |
| 20260509180032 | 20 | 197 | 3.2 | 6.4 | 0.00 | 0.00 | 0.00 | 68 | 1012.2 |
| 20260509175019 | 20 | 201 | 4.8 | 11.3 | 0.00 | 0.00 | 0.00 | 67 | 1012.5 |
| 20260509174025 | 20 | 183 | 4.8 | 8.0 | 0.00 | 0.00 | 0.00 | 67 | 1012.7 |
| 20260509173030 | 20 | 196 | 3.2 | 8.0 | 0.00 | 0.00 | 0.00 | 68 | 1012.5 |
| 20260509172018 | 20 | 210 | 3.2 | 6.4 | 0.00 | 0.00 | 0.00 | 66 | 1012.5 |
| 20260509171023 | 20 | 207 | 3.2 | 6.4 | 0.00 | 0.00 | 0.00 | 66 | 1012.6 |
| 20260509170029 | 20 | 196 | 6.4 | 9.7 | 0.00 | 0.00 | 0.00 | 66 | 1012.6 |
| 20260509165016 | 20 | 181 | 3.2 | 9.7 | 0.00 | 0.00 | 0.00 | 67 | 1012.6 |
| 20260509164022 | 20 | 198 | 3.2 | 6.4 | 0.00 | 0.00 | 0.00 | 67 | 1012.8 |
| 20260509163028 | 19 | 189 | 4.8 | 6.4 | 0.00 | 0.00 | 0.00 | 68 | 1012.9 |
| 20260509162014 | 18 | 191 | 6.4 | 9.7 | 0.00 | 0.00 | 0.00 | 68 | 1012.9 |
| 20260509161021 | 19 | 204 | 3.2 | 6.4 | 0.00 | 0.00 | 0.00 | 66 | 1012.8 |
| 20260509160046 | 19 | 181 | 3.2 | 3.2 | 0.00 | 0.00 | 0.00 | 69 | 1012.9 |
| 20260509155031 | 18 | 193 | 3.2 | 4.8 | 0.00 | 0.00 | 0.00 | 68 | 1012.8 |
| 20260509154019 | 18 | 188 | 3.2 | 12.9 | 0.00 | 0.00 | 0.00 | 67 | 1013.0 |
| 20260509153025 | 18 | 195 | 4.8 | 9.7 | 0.00 | 0.00 | 0.00 | 66 | 1013.0 |
| 20260509152030 | 18 | 205 | 4.8 | 8.0 | 0.00 | 0.00 | 0.00 | 68 | 1013.0 |
| 20260509151017 | 17 | 212 | 4.8 | 8.0 | 0.00 | 0.00 | 0.00 | 68 | 1013.1 |
| 20260509150023 | 17 | 199 | 4.8 | 8.0 | 0.00 | 0.00 | 0.00 | 69 | 1013.2 |
| 20260509145049 | 17 | 200 | 4.8 | 8.0 | 0.00 | 0.00 | 0.00 | 69 | 1013.3 |
| 20260509144036 | 17 | 204 | 4.8 | 11.3 | 0.00 | 0.00 | 0.00 | 69 | 1013.5 |
| 20260509143021 | 16 | 176 | 1.6 | 4.8 | 0.00 | 0.00 | 0.00 | 72 | 1013.6 |
| 20260509142032 | 16 | 183 | 4.8 | 8.0 | 0.00 | 0.00 | 0.00 | 70 | 1013.6 |
| 20260509141059 | 16 | 206 | 4.8 | 6.4 | 0.00 | 0.00 | 0.00 | 71 | 1013.7 |
| 20260509140025 | 15 | 197 | 3.2 | 6.4 | 0.00 | 0.00 | 0.00 | 71 | 1013.8 |
| 20260509135030 | 15 | 196 | 4.8 | 6.4 | 0.00 | 0.00 | 0.00 | 71 | 1013.7 |
| 20260509134017 | 15 | 200 | 1.6 | 3.2 | 0.00 | 0.00 | 0.00 | 72 | 1013.7 |
| 20260509133023 | 15 | 196 | 1.6 | 4.8 | 0.00 | 0.00 | 0.00 | 71 | 1013.8 |
| 20260509132048 | 14 | 0.0 | 0.0 | 0.00 | 0.00 | 0.00 | 72 | 1013.8 | |
| 20260509131016 | 13 | 207 | 3.2 | 4.8 | 0.00 | 0.00 | 0.00 | 72 | 1013.7 |
| 20260509130022 | 13 | 203 | 3.2 | 4.8 | 0.00 | 0.00 | 0.00 | 73 | 1013.6 |
| 20260509125027 | 13 | 196 | 1.6 | 6.4 | 0.00 | 0.00 | 0.00 | 73 | 1013.7 |
| 20260509124015 | 13 | 185 | 1.6 | 4.8 | 0.00 | 0.00 | 0.00 | 73 | 1013.7 |
| 20260509123020 | 13 | 203 | 3.2 | 4.8 | 0.00 | 0.00 | 0.00 | 73 | 1013.8 |
| 20260509122026 | 13 | 206 | 3.2 | 6.4 | 0.00 | 0.00 | 0.00 | 72 | 1013.8 |
| 20260509121025 | 13 | 199 | 3.2 | 4.8 | 0.00 | 0.00 | 0.00 | 72 | 1013.8 |
| 20260509120018 | 13 | 206 | 3.2 | 4.8 | 0.00 | 0.00 | 0.00 | 72 | 1013.8 |
| 20260509115104 | 13 | 192 | 3.2 | 4.8 | 0.00 | 0.00 | 0.00 | 72 | 1013.7 |
| 20260509114024 | 12 | 205 | 3.2 | 6.4 | 0.00 | 0.00 | 0.00 | 72 | 1013.6 |
| 20260509113017 | 12 | 200 | 4.8 | 8.0 | 0.00 | 0.00 | 0.00 | 71 | 1013.6 |
| 20260509112042 | 12 | 203 | 4.8 | 6.4 | 0.00 | 0.00 | 0.00 | 71 | 1013.5 |
| 20260509111022 | 12 | 207 | 4.8 | 8.0 | 0.00 | 0.00 | 0.00 | 72 | 1013.3 |
| 20260509110016 | 12 | 195 | 1.6 | 4.8 | 0.00 | 0.00 | 0.00 | 71 | 1013.3 |
| 20260509105021 | 12 | 195 | 1.6 | 4.8 | 0.00 | 0.00 | 0.00 | 71 | 1013.2 |
| 20260509104020 | 12 | 203 | 3.2 | 6.4 | 0.00 | 0.00 | 0.00 | 70 | 1013.3 |
| 20260509103020 | 12 | 202 | 3.2 | 4.8 | 0.00 | 0.00 | 0.00 | 70 | 1013.2 |
| 20260509102020 | 13 | 198 | 3.2 | 4.8 | 0.00 | 0.00 | 0.00 | 69 | 1013.2 |
| 20260509100030 | 13 | 200 | 4.8 | 9.7 | 0.00 | 0.00 | 0.00 | 68 | 1013.2 |
| 20260509095017 | 13 | 199 | 4.8 | 6.4 | 0.00 | 0.00 | 0.00 | 68 | 1013.1 |
| 20260509094023 | 13 | 195 | 6.4 | 9.7 | 0.00 | 0.00 | 0.00 | 68 | 1013.2 |
| 20260509093048 | 13 | 200 | 4.8 | 9.7 | 0.00 | 0.00 | 0.00 | 68 | 1013.3 |
| 20260509092016 | 13 | 196 | 3.2 | 4.8 | 0.00 | 0.00 | 0.00 | 68 | 1013.4 |
| 20260509091102 | 13 | 203 | 6.4 | 9.7 | 0.00 | 0.00 | 0.00 | 68 | 1013.5 |
| 20260509090027 | 13 | 200 | 4.8 | 9.7 | 0.00 | 0.00 | 0.00 | 68 | 1013.7 |
| 20260509085032 | 13 | 202 | 6.4 | 8.0 | 0.00 | 0.00 | 0.00 | 68 | 1013.6 |
| 20260509084020 | 13 | 197 | 4.8 | 9.7 | 0.00 | 0.00 | 0.00 | 68 | 1013.7 |
| 20260509083026 | 13 | 204 | 4.8 | 9.7 | 0.00 | 0.00 | 0.00 | 68 | 1013.7 |
| 20260509082031 | 12 | 195 | 4.8 | 6.4 | 0.00 | 0.00 | 0.00 | 68 | 1013.7 |
| 20260509081019 | 13 | 206 | 3.2 | 4.8 | 0.00 | 0.00 | 0.00 | 68 | 1013.9 |
| 20260509080024 | 13 | 199 | 3.2 | 6.4 | 0.00 | 0.00 | 0.00 | 68 | 1014.0 |
| 20260509075029 | 13 | 194 | 3.2 | 6.4 | 0.00 | 0.00 | 0.00 | 67 | 1014.0 |
| 20260509074017 | 13 | 203 | 3.2 | 4.8 | 0.00 | 0.00 | 0.00 | 67 | 1014.0 |
| 20260509073023 | 13 | 203 | 3.2 | 4.8 | 0.00 | 0.00 | 0.00 | 67 | 1014.0 |
| 20260509072028 | 13 | 193 | 1.6 | 3.2 | 0.00 | 0.00 | 0.00 | 67 | 1013.9 |
| 20260509071016 | 13 | 187 | 3.2 | 4.8 | 0.00 | 0.00 | 0.00 | 66 | 1013.8 |
| 20260509070021 | 13 | 195 | 4.8 | 6.4 | 0.00 | 0.00 | 0.00 | 66 | 1013.8 |
| 20260509065025 | 13 | 187 | 3.2 | 6.4 | 0.00 | 0.00 | 0.00 | 65 | 1013.9 |
| 20260509064019 | 13 | 203 | 6.4 | 11.3 | 0.00 | 0.00 | 0.00 | 65 | 1014.0 |
| 20260509063025 | 13 | 203 | 4.8 | 6.4 | 0.00 | 0.00 | 0.00 | 66 | 1014.1 |
| 20260509062024 | 13 | 214 | 3.2 | 8.0 | 0.00 | 0.00 | 0.00 | 66 | 1014.2 |
| 20260509061038 | 13 | 199 | 3.2 | 8.0 | 0.00 | 0.00 | 0.00 | 66 | 1014.2 |
| 20260509060022 | 13 | 202 | 4.8 | 8.0 | 0.00 | 0.00 | 0.00 | 66 | 1014.4 |
| 20260509055016 | 13 | 199 | 3.2 | 6.4 | 0.00 | 0.00 | 0.00 | 66 | 1014.4 |
| 20260509054021 | 13 | 198 | 3.2 | 6.4 | 0.00 | 0.00 | 0.00 | 65 | 1014.3 |
| 20260509053121 | 13 | 205 | 4.8 | 8.0 | 0.00 | 0.00 | 0.00 | 66 | 1014.4 |
| 20260509052020 | 13 | 198 | 4.8 | 8.0 | 0.00 | 0.00 | 0.00 | 65 | 1014.5 |
| 20260509051020 | 13 | 196 | 4.8 | 6.4 | 0.00 | 0.00 | 0.00 | 66 | 1014.5 |
| 20260509050019 | 13 | 195 | 4.8 | 8.0 | 0.00 | 0.00 | 0.00 | 65 | 1014.4 |
| 20260509045019 | 13 | 185 | 3.2 | 6.4 | 0.00 | 0.00 | 0.00 | 65 | 1014.3 |
| 20260509044019 | 13 | 207 | 3.2 | 6.4 | 0.00 | 0.00 | 0.00 | 65 | 1014.3 |
| 20260509043018 | 13 | 192 | 4.8 | 8.0 | 0.00 | 0.00 | 0.00 | 65 | 1014.4 |
| 20260509042017 | 13 | 208 | 4.8 | 8.0 | 0.00 | 0.00 | 0.00 | 65 | 1014.5 |
| 20260509041017 | 13 | 203 | 4.8 | 11.3 | 0.00 | 0.00 | 0.00 | 65 | 1014.5 |
| 20260509040017 | 13 | 200 | 3.2 | 6.4 | 0.00 | 0.00 | 0.00 | 65 | 1014.4 |
| 20260509035056 | 13 | 199 | 3.2 | 4.8 | 0.00 | 0.00 | 0.00 | 65 | 1014.5 |
| 20260509034015 | 13 | 197 | 3.2 | 6.4 | 0.00 | 0.00 | 0.00 | 65 | 1014.6 |
| 20260509033015 | 13 | 205 | 3.2 | 6.4 | 0.00 | 0.00 | 0.00 | 65 | 1014.7 |
| 20260509032026 | 13 | 0.0 | 0.0 | 0.00 | 0.00 | 0.00 | 65 | 1014.7 | |
| 20260509031032 | 13 | 197 | 1.6 | 3.2 | 0.00 | 0.00 | 0.00 | 64 | 1014.7 |
| 20260509030019 | 13 | 201 | 3.2 | 4.8 | 0.00 | 0.00 | 0.00 | 64 | 1014.8 |
| 20260509025025 | 13 | 196 | 1.6 | 4.8 | 0.00 | 0.00 | 0.00 | 64 | 1014.8 |
| 20260509024030 | 13 | 192 | 1.6 | 3.2 | 0.00 | 0.00 | 0.00 | 64 | 1014.8 |
| 20260509023018 | 13 | 186 | 3.2 | 4.8 | 0.00 | 0.00 | 0.00 | 64 | 1014.7 |